Regional Weather Roundup
Issued by NWS Charleston, SC

Current Version | Previous Version | Graphics & Text | Print | Product List | Glossary On
Versions: 1 2 3 4 5 6 7 8 9 10 11 12 13 14 15 16 17 18 19 20 21 22 23 24 25 26 27 28 29 30 31 32 33 34 35 36 37 38 39 40 41 42 43 44 45 46 47 48 49 50
004
ASUS42 KCHS 211826
RWRCHS

REGIONAL WEATHER ROUNDUP
NATIONAL WEATHER SERVICE CHARLESTON SC
200 PM EDT THU MAY 21 2015

NOTE: "FAIR" INDICATES FEW OR NO CLOUDS BELOW 12,000 FEET WITH NO
SIGNIFICANT WEATHER AND/OR OBSTRUCTIONS TO VISIBILITY.

NOT ALL STATIONS ARE QUALITY CONTROLLED BY THE NATIONAL
WEATHER SERVICE. USE DATA WITH CAUTION...ESPECIALLY
DEWPOINT OBSERVATIONS.

SCZ027-030-031-034>040-042>050-211900-
...SOUTHEAST SOUTH CAROLINA...

CITY           SKY/WX    TMP DP  RH WIND       PRES   REMARKS
N CHARLESTON   PTSUNNY   87  65  47 W17G23    29.83S
6HR MIN TEMP:  76; 6HR MAX TEMP:  88;

WATERFRONT PAR   N/A     86  67  53 W7        29.81F
MOUNT PLEASANT LGT RAIN  88  66  48 W15       29.82S HX  90
JOHNS ISLAND   CLEAR     90  66  45 W13G22    29.83F HX  92
PINOPOLIS      NOT AVBL
MONCKS CORNER  FAIR      88  66  48 W7G20     29.82S HX  90
SUMMERVILLE    FAIR      88  70  55 SW8       29.84F HX  92
BEAUFORT MCAS  MOSUNNY   90  62  39 W14       29.85F HX  90
6HR MIN TEMP:  76; 6HR MAX TEMP:  91;

BEAUFORT ARPT  FAIR      90  66  45 W15G23    29.85F HX  92
HILTON HEAD IS SUNNY     86  63  45 SW12G21   29.87F
WALTERBORO     PTCLDY    88  63  42 W9G21     29.85S
ALLENDALE      FAIR      90  63  40 W10       29.85S HX  90

...SOUTHERN MIDLANDS AND PEE DEE...

CITY           SKY/WX    TMP DP  RH WIND       PRES   REMARKS
GEORGETOWN     NOT AVBL
KINGSTREE      NOT AVBL
ORANGEBURG     PTSUNNY   85  64  49 W17       29.84F
6HR MIN TEMP:  71; 6HR MAX TEMP:  87;

BARNWELL       FAIR      91  59  33 W16       29.85F HX  90
AIKEN          FAIR      88  54  31 W15       29.90S
MANNING        MOCLDY    86  61  42 W9G17     29.81F
COLUMBIA       PTSUNNY   88  63  43 NW15G22   29.83F
6HR MIN TEMP:  74; 6HR MAX TEMP:  88;

SUMTER         MOSUNNY   86  65  49 W13       29.80F
6HR MIN TEMP:  73; 6HR MAX TEMP:  87;

FLORENCE       PTSUNNY   86  66  51 SW16G25   29.77F
6HR MIN TEMP:  72; 6HR MAX TEMP:  90;

MYRTLE BEACH   MOSUNNY   82  73  74 S14       29.80F
N MYRTLE BEACH MOSUNNY   80  74  81 S12       29.80F
6HR MIN TEMP:  75; 6HR MAX TEMP:  81;


$$

GAZ063-065-086>088-099>101-113>116-118-119-134>141-150-211900-
...SOUTHEAST GEORGIA...

CITY           SKY/WX    TMP DP  RH WIND       PRES   REMARKS
SAVANNAH ARPT  MOSUNNY   89  62  40 W18       29.88F
6HR MIN TEMP:  73; 6HR MAX TEMP:  89;

HUNTER AAF     SUNNY     91  64  40 W13G23    29.86F HX  93
6HR MIN TEMP:  74; 6HR MAX TEMP:  91;

FORT STEWART   MOSUNNY   91  61  35 SW16      29.87F HX  91
6HR MIN TEMP:  75; 6HR MAX TEMP:  91;

STATESBORO     SUNNY     89  67  48 W13       29.89F HX  91
SYLVANIA       CLEAR     91  62  38 W10G18    29.89S HX  91
CLAXTON        FAIR      90  64  43 W8        29.90S HX  91

...CSRA...CENTRAL AND FAR SOUTHEAST GEORGIA...

CITY           SKY/WX    TMP DP  RH WIND       PRES   REMARKS
THOMSON        SUNNY     88  63  43 W15G22    29.94S
AUGUSTA-BUSH   SUNNY     88  58  36 W10G21    29.86F
6HR MIN TEMP:  72; 6HR MAX TEMP:  89;

AUGUSTA-DANIEL SUNNY     88  58  36 W10G20    29.88F
SWAINSBORO     FAIR      90  61  37 W14G22    29.91F
VIDALIA        SUNNY     88  61  40 W10G18    29.92F
EASTMAN        FAIR      89  61  39 NW8G20    29.95F
HAZLEHURST     FAIR      90  61  37 W10G18    29.92F
ALMA           SUNNY     88  62  41 W13       29.93F
6HR MIN TEMP:  73; 6HR MAX TEMP:  88;

WAYCROSS       SUNNY     90  65  43 NW9G17    29.93F HX  92
JESUP          FAIR      91  63  38 NW14G24   29.91F HX  92
BAXLEY         FAIR      90  63  40 NW10G18   29.92F HX  90
BRUNSWICK      SUNNY     91  59  33 W13G20    29.91F HX  90
SAINT SIMONS   NOT AVBL

$$

SCZ027-028-034-036>038-045-046-048>050-GAZ119-141-211900-
...LAKE AND SUPPLEMENTAL COASTAL OBSERVATIONS...

STATION/POSITION TIME  TEMP    WIND        PRES    WAVE   SWELL
                       AIR SEA DIR/SP/G            HT/PER HT/PER/DIR
                 (UTC) (F)     (DEG/KT/KT) (MB)    (FT/S) (FT/S/D)
UPR LAKE MARION  NOT AVBL
WINYAH BAY       1700   86     240/ 11     1008.0F
LAKE MURRAY      1800   83     280/  7/ 12 1009.8F
ACE BASIN NERRS  1700   85     260/  6     1011.0F
FORT PULASKI     1800   86 79  270/ 13/ 17 1012.0F
SAPELO ISLAND    1800   89     260/ 12     1012.0F

$$

ANZ835-935-AMZ111-154-330-350-352-354-370-450-454-472-211900-
...C-MAN AND BUOY OBSERVATIONS...

STATION/POSITION TIME  TEMP    WIND        PRES    WAVE   SWELL
                       AIR SEA DIR/SP/G            HT/PER HT/PER/DIR
                 (UTC) (F)     (DEG/KT/KT) (MB)    (FT/S) (FT/S/D)
BUOY 41004       1750   76 76  220/ 16/ 17 1009.8F   3/ 5   2/ 8
BUOY 41008       1750   80 78  240/ 10/ 12 1012.6F   2/ 3   2/100/10
FOLLY BEACH CMAN 1800   80     210/ 16/ 18 1010.3F
CAPERS NEARSHORE 1708   77     220/ 14/ 17 1010.4F
FRIPP NEARSHORE  1700   80     260/ 10/ 12 1011.1F


STATION/POSITION TIME  TEMP    WIND        PRES    WAVE   SWELL
                       AIR SEA DIR/SP/G            HT/PER HT/PER/DIR
                 (UTC) (F)     (DEG/KT/KT) (MB)    (FT/S) (FT/S/D)
5E ST. MARYS GA  1721      79                N/A     1/ 8
FRYING PAN BUOY  1750   79 77  190/ 12/ 12 1010.1F   2/ 5   2/150/ 6
BUOY 41025       1750   75 77  140/ 17/ 21 1010.8F   5/ 5   2/ 60/ 8
CAPE LOOKOUT NC  1800   75     160/  9/ 10 1009.6F
BUOY 41002       1750   75 75  210/ 12/ 14 1014.0F   3/ 5   2/ 70/ 9
BUOY 41010       1720   80 79  250/  8/ 10 1015.4F
ST AUGUSTINE FL  1800   88 72  280/  7/ 11 1014.6F


$$



USA.gov is the U.S. government's official web portal to all federal, state and local government web resources and services.